This demonstration page uses our WeatherBlox Daily Observations layout. Learn more.

Left ArrowRight Arrow

36.17497, -115.13722

Hourly Observations for March 4, 2015

Temp ( °F °C ) Dew Point ( °F °C ) Humidity (%) Winds ( mph kmh ) Pressure ( in mb ) Visibility ( mi km ) Precip ( " mm )
12:53 am 00:53 Clear 45 7.2 19 -7.2 35 35 NNW 14 22 30.09 1019 10 16 N/A
1:53 am 01:53 Clear 45 7.2 17 -8.3 33 33 N 10 17 30.10 1019 10 16 N/A
2:53 am 02:53 Clear 44 6.7 16 -8.9 32 32 NNW 15 24 30.10 1019 10 16 N/A
3:53 am 03:53 Clear 43 6.1 16 -8.9 34 34 N 13 20 30.10 1019 10 16 N/A
4:53 am 04:53 Clear 42 5.6 16 -8.9 35 35 N 15 24 30.12 1020 10 16 N/A
5:53 am 05:53 Clear 41 5 17 -8.3 38 38 N 12 19 30.14 1021 10 16 N/A
6:53 am 06:53 Sunny 42 5.6 16 -8.9 35 35 N 15 24 30.17 1022 10 16 N/A
7:53 am 07:53 Sunny 45 7.2 15 -9.4 30 30 N 17 28 30.20 1023 10 16 N/A
8:53 am 08:53 Sunny 48 8.9 14 -10 25 25 N 17 28 30.22 1023 10 16 N/A
9:53 am 09:53 Sunny 51 10.6 13 -10.6 22 22 N 20 31 30.22 1023 10 16 N/A
10:53 am 10:53 Sunny 54 12 12 -11 19 19 NNW 13 20 30.15 1021 10 16 N/A
11:53 am 11:53 Sunny 55 12.8 13 -10.6 19 19 NNW 9 15 30.22 1023 10 16 N/A
12:53 pm 12:53 Sunny 56 13.3 12 -11.1 17 17 VRB 3 6 30.21 1023 10 16 N/A
1:53 pm 13:53 Sunny 58 14.4 12 -11.1 16 16 NNE 6 9 30.20 1023 10 16 N/A
2:53 pm 14:53 Sunny 57 14 12 -11 17 17 VRB 3 6 30.12 1020 10 16 N/A
3:53 pm 15:53 Sunny 58 14.4 13 -10.6 17 17 ESE 5 7 30.20 1023 10 16 N/A
4:53 pm 16:53 Sunny 58 14.4 14 -10 18 18 undefined N/A 30.22 1023 10 16 N/A
5:53 pm 17:53 Clear 55 12.8 18 -7.8 23 23 E 9 15 30.24 1024 10 16 N/A
6:53 pm 18:53 Clear 53 11.7 21 -6.1 28 28 ESE 6 9 30.27 1025 10 16 N/A
7:53 pm 19:53 Clear 52 11.1 22 -5.6 31 31 NE 3 6 30.28 1025 10 16 N/A
8:53 pm 20:53 Clear 50 10 22 -5.6 33 33 WNW 5 7 30.31 1026 10 16 N/A
9:53 pm 21:53 Clear 47 8.3 25 -3.9 42 42 W 5 7 30.32 1027 10 16 N/A
10:53 pm 22:53 Clear 46 7.8 27 -2.8 47 47 WNW 3 6 30.33 1027 10 16 N/A
11:53 pm 23:53 Clear 44 6.7 27 -2.8 51 51 NNW 3 6 30.34 1028 10 16 N/A

Powered by AerisWeather